Powrót do katalogu

DELTA 1 DEB

AktywnySSO
NORAD 18775·DEBRIS·🇺🇸 United States

Wystrzelony Mar 5, 1978 z Vandenberg Space Force Base

Loading…

Następne Przeloty (najbliższe 24 godziny)

TLE

ŚwieżeSource: Space-Track

Epoka: Sep 13, 2026, 16:04 UTC

1 18775U 78026HH  26256.66968040  .00000621  00000-0  44754-3 0  9997
2 18775  99.1293 160.9013 0064997 107.0844 253.7453 13.99581789928842

Śledź DELTA 1 DEB w czasie rzeczywistym z AllMySat

Download on the App Store